User: anonymous   Login
Location: Newark
(26.8229°N, 81.7649°W)
Time: 12:39:50
(UTC+00:00)
Language:

ISS - Orbit

View from above orbital plane
View from above orbital plane
View from above satellite
View from above satellite

Ground track
Ground track

The orbit data is extracted from the following two-line orbital elements,

1 25544U 98067A   20050.39098321  .00016717  00000-0  10270-3 0  9032
2 25544  51.6399 216.2661 0005368 291.1883  68.8693 15.49184283 13596
Epoch (UTC): 19 February 2020 09:23:00
Eccentricity: 0.0005368
inclination: 51.6399°
perigee height: 415 km
apogee height: 423 km
right ascension of ascending node: 216.2661°
argument of perigee: 291.1883°
revolutions per day: 15.49184283
mean anomaly at epoch: 68.8693°
orbit number at epoch: 1359

The dashed part of the orbit path shows where the satellite is in the earth's shadow,  

DLR